#timestamp,LO_Frequency,Hit,StdDev 
1654743615.3,286047002.8,P
1654743635.2,286046999.7,N
1654743655.0,286046999.7,N
1654743655.9,286046999.7,N
1654743675.8,286047002.6,N
1654743695.6,286047002.2,N
1654743715.4,286047002.1,N
1654743735.3,286046999.9,N
1654743755.1,286047002.3,N
1654743775.9,286047001.9,N
1654743795.7,286047002.4,N
1654743815.5,286047001.9,N
1654743835.4,286046999.9,N
1654743855.2,286047002.8,N
1654743875.0,286046998.2,N
1654743875.9,286046998.2,N
1654743895.8,286047000.7,N
1654743915.6,286047001.0,N
1654743935.4,286047001.9,N
1654743955.3,286046999.7,N
1654743975.1,286047000.1,N
1654743995.9,286046998.6,N
1654744015.7,286047001.0,N
1654744035.5,286047000.8,N
1654744055.4,286047000.9,N
1654744075.2,286047000.9,N
1654744095.0,286046998.5,N
1654744096.0,286046998.5,N
1654744115.8,286047001.1,N
1654744135.6,286047002.3,N
1654744155.5,286047002.2,N
1654744175.3,286046999.9,N
1654744195.1,286047000.5,N
1654744215.9,286047000.7,N
1654744235.7,286047002.2,N
1654744255.6,286047002.4,N
1654744275.4,286047002.2,N
1654744295.2,286047002.8,N
1654744315.1,286047001.9,N
1654744316.0,286047001.9,N
1654744335.8,286047001.6,N
1654744355.7,286047001.6,N
1654744375.5,286047004.2,Y
1654744395.3,286047002.1,P
1654744415.2,286047002.5,P
1654744435.0,286047002.5,P
1654744435.9,286047002.5,Y
1654744455.7,286046999.8,P
1654744475.6,286047000.0,N
1654744495.4,286046999.9,N
1654744515.3,286046998.8,N
1654744535.1,286046999.1,N
1654744555.8,286046997.7,N
1654744575.7,286046995.6,Y
1654744595.5,286046997.9,P
1654744615.4,286046997.0,P
1654744635.2,286046999.1,N
1654744655.0,286046997.9,N
1654744655.9,286046997.9,N
1654744675.8,286046997.9,N
1654744695.6,286046995.3,Y
1654744715.4,286046997.0,P
1654744735.3,286046997.0,P
1654744755.1,286046997.6,P
1654744775.9,286046997.3,Y
1654744795.7,286047000.1,P
1654744815.5,286047002.7,N
1654744835.4,286047001.6,N
1654744855.2,286047000.1,N
1654744875.0,286047000.1,N
1654744876.0,286047000.1,N
1654744895.8,286046999.7,N
1654744915.6,286047000.0,N
1654744935.5,286047000.7,N
1654744955.3,286046998.6,N
1654744975.1,286046998.2,N
1654744995.9,286046999.3,N
1654745015.7,286046996.5,N
1654745035.6,286046996.5,N
1654745055.7,286046997.6,N
1654745075.5,286046997.3,N
1654745095.3,286046995.3,N
1654745115.2,286046995.8,N
1654745135.0,286046995.2,N
1654745135.9,286046995.2,N
1654745155.8,286046997.9,N
1654745175.6,286046995.2,N
1654745195.4,286046995.0,N
1654745215.3,286046995.8,N
1654745235.1,286046995.1,N
1654745255.9,286046997.9,N
1654745275.7,286046997.7,N
1654745295.5,286046997.2,N
1654745315.4,286046999.1,N
1654745335.2,286046999.5,N
1654745355.0,286046999.0,N
1654745355.9,286046999.0,N
1654745375.8,286046996.9,N
1654745395.6,286046999.5,N
1654745415.5,286046997.0,N
1654745435.3,286046996.8,N
1654745455.1,286046997.7,N
1654745475.9,286046997.8,N
1654745495.7,286046997.5,N
1654745515.6,286046996.7,N
1654745535.4,286046997.6,N
1654745555.2,286046997.7,N
1654745575.1,286046995.2,Y
1654745576.0,286046995.2,P
1654745595.8,286046998.9,N
1654745615.7,286046999.6,N
1654745635.5,286046998.3,N
1654745655.3,286046999.6,N
1654745675.2,286046996.8,N
1654745695.9,286046996.9,N
1654745715.7,286046997.4,N
1654745735.6,286046996.9,N
1654745755.4,286046996.5,N
1654745775.3,286046998.0,N
1654745795.1,286046997.6,N
1654745796.0,286046997.6,N
1654745815.8,286046994.9,Y
1654745835.7,286046998.1,P
1654745855.5,286046998.5,P
1654745875.3,286046998.7,P
1654745895.2,286046998.8,N
1654745915.0,286046998.9,N
1654745915.9,286046998.9,N
1654745935.8,286046999.3,N
1654745955.6,286047001.1,N
1654745975.4,286046998.5,N
1654745995.3,286047000.9,N
1654746015.1,286046999.1,N
1654746035.9,286046998.9,N
1654746055.7,286046999.0,N
1654746075.5,286047000.7,N
1654746095.4,286047001.2,N
1654746115.2,286046998.4,N
1654746135.0,286047000.5,N
1654746135.9,286047000.5,N
1654746155.8,286047001.1,N
1654746175.6,286046998.5,N
1654746195.5,286046998.9,N
1654746215.3,286046996.6,Y
1654746235.1,286046999.1,P
1654746255.9,286046999.3,P
1654746275.7,286046997.3,P
1654746295.6,286046997.0,Y
1654746315.4,286047001.1,P
1654746335.2,286047000.3,N
1654746355.1,286047000.2,N
1654746356.0,286047000.2,N
1654746375.8,286047000.0,N
1654746395.6,286047000.4,N
1654746415.5,286047000.4,N
1654746435.3,286047000.3,N
1654746455.2,286047000.0,N
1654746475.9,286046999.9,N
1654746495.7,286046999.9,N
1654746515.6,286047000.4,N
1654746535.4,286047000.1,N
1654746555.2,286046999.9,N
1654746575.1,286046999.9,N
1654746576.0,286046999.9,N
1654746595.8,286047002.8,Y
1654746615.7,286046999.7,P
1654746635.5,286047000.0,N
1654746655.3,286047000.9,P
1654746675.2,286047000.6,N
1654746695.0,286047000.7,N
1654746695.9,286047000.7,N
1654746715.8,286047001.1,N
1654746735.6,286047000.7,N
1654746755.4,286047000.9,N
1654746775.3,286046998.2,Y
1654746795.1,286046999.3,P
1654746815.8,286046999.4,N
1654746835.7,286046998.7,N
1654746855.5,286047001.1,N
1654746875.4,286047001.1,N
1654746895.2,286046998.4,N
1654746915.0,286046999.3,N
1654746915.9,286046999.3,N
1654746935.8,286046998.1,N
1654746955.6,286046998.3,N
1654746975.4,286046999.0,N
1654746995.3,286046998.8,N
1654747015.1,286047001.0,N
1654747035.9,286047001.1,N
1654747055.7,286047000.0,N
1654747075.5,286047000.7,N
1654747095.4,286046998.6,N
1654747115.2,286046998.9,N
1654747135.0,286046998.7,N
1654747135.9,286046998.7,N
1654747155.8,286046998.6,N
1654747175.6,286047001.0,N
1654747195.5,286047011.9,Y
